Weather History for Gaylord, MI

Change the Weather History Date:

Saturday, June 29, 2013

  Actual Average Record
Temperature  
Mean Temperature 64 °F -  
Max Temperature 72 °F 77 °F 94 °F (1971)
Min Temperature 57 °F 53 °F 39 °F (1988)
Degree Days  
Heating Degree Days 1    
Growing Degree Days 14 (Base 50)    
Moisture  
Dew Point 56 °F    
Average Humidity 81    
Maximum Humidity 100    
Minimum Humidity 53    
Precipitation  
Precipitation 0.03 in - - ()
Sea Level Pressure  
Sea Level Pressure 29.68 in    
Wind  
Wind Speed 8 mph (NE)    
Max Wind Speed 13 mph    
Max Gust Speed 18 mph    
Visibility 10 miles    
Events Rain    
Averages and records for this station are not official NWS values.
T = Trace of Precipitation, MM = Missing Value Source: NWS Daily Summary

Daily Weather History Graph

Daily Weather History Graph

Search for Another Location

Airport:

Trip Planner

Search our weather history database for the weather conditions in past years. The results will help you decide how hot, cold, wet, or windy it might be!

Date:

Astronomy

Jun. 29, 2013 Rise Set
Actual Time 5:55 AM EDT 9:29 PM EDT
Civil Twilight 5:17 AM EDT 10:06 PM EDT
Nautical Twilight 4:28 AM EDT 10:56 PM EDT
Astronomical Twilight 3:23 AM EDT 12:00 AM EDT
Moon 12:39 AM EDT (6/29) 1:26 PM EDT (6/29)
Length of Visible Light 16h 49m
Length of Day
15h 34m
Waning Gibbous, 56% of the Moon is Illuminated
Jun 29
Waning Gibbous
Jun 30
Last Quarter
Jul 8
New
Jul 15
First Quarter
Jul 22
Full

Hourly Weather History & Observations

Time (EDT) Temp. Dew Point Humidity Pressure Visibility Wind Dir Wind Speed Gust Speed Precip Events Conditions
12:53 AM 62.1 °F 61.0 °F 96% 29.63 in 9.0 mi NE 10.4 mph - 0.01 in   Overcast
1:53 AM 62.1 °F 60.1 °F 93% 29.63 in 7.0 mi NNE 8.1 mph - 0.01 in Rain Light Rain
2:06 AM 62.6 °F 60.8 °F 94% 29.64 in 10.0 mi NNE 6.9 mph - 0.00 in   Overcast
2:37 AM 60.8 °F 59.0 °F 94% 29.64 in 6.0 mi NNE 8.1 mph - 0.00 in   Overcast
2:53 AM 61.0 °F 60.1 °F 97% 29.62 in 6.0 mi NE 5.8 mph - 0.00 in   Overcast
3:16 AM 60.8 °F 60.8 °F 100% 29.63 in 10.0 mi NNE 8.1 mph - N/A   Overcast
3:37 AM 60.8 °F 59.0 °F 94% 29.63 in 10.0 mi NE 10.4 mph 17.3 mph 0.00 in Rain Light Rain
3:53 AM 61.0 °F 59.0 °F 93% 29.62 in 10.0 mi NNE 5.8 mph - 0.00 in Rain Light Rain
4:03 AM 60.8 °F 59.0 °F 94% 29.63 in 10.0 mi NE 8.1 mph - 0.01 in Rain Light Rain
4:10 AM 60.8 °F 59.0 °F 94% 29.63 in 10.0 mi NE 8.1 mph - 0.01 in Rain Light Rain
4:53 AM 60.1 °F 59.0 °F 96% 29.62 in 10.0 mi NE 9.2 mph - 0.01 in Rain Light Rain
5:41 AM 59.0 °F 57.2 °F 94% 29.64 in 10.0 mi NE 8.1 mph - 0.00 in   Overcast
5:53 AM 59.0 °F 57.9 °F 96% 29.64 in 10.0 mi NE 9.2 mph - 0.00 in   Overcast
6:01 AM 60.8 °F 57.2 °F 88% 29.65 in 10.0 mi NE 9.2 mph - N/A   Overcast
6:08 AM 59.0 °F 57.2 °F 94% 29.65 in 10.0 mi NE 10.4 mph - N/A   Overcast
6:23 AM 59.0 °F 55.4 °F 88% 29.65 in 10.0 mi NE 9.2 mph - N/A   Overcast
6:53 AM 57.9 °F 55.9 °F 93% 29.66 in 10.0 mi NE 9.2 mph - N/A   Overcast
7:16 AM 57.2 °F 55.4 °F 94% 29.67 in 10.0 mi NE 5.8 mph - N/A   Overcast
7:51 AM 57.2 °F 55.4 °F 94% 29.67 in 10.0 mi NE 5.8 mph - N/A   Overcast
7:53 AM 57.9 °F 55.0 °F 90% 29.67 in 10.0 mi NE 5.8 mph - N/A   Overcast
8:12 AM 59.0 °F 55.4 °F 88% 29.68 in 10.0 mi NNE 8.1 mph - N/A   Mostly Cloudy
8:22 AM 59.0 °F 55.4 °F 88% 29.68 in 10.0 mi Variable 6.9 mph - N/A   Mostly Cloudy
8:30 AM 59.0 °F 55.4 °F 88% 29.68 in 10.0 mi Variable 6.9 mph - N/A   Mostly Cloudy
8:53 AM 59.0 °F 55.0 °F 87% 29.68 in 10.0 mi NNE 5.8 mph - N/A   Overcast
9:46 AM 60.8 °F 53.6 °F 77% 29.69 in 10.0 mi NE 4.6 mph - N/A   Scattered Clouds
9:53 AM 62.1 °F 55.0 °F 78% 29.68 in 10.0 mi Variable 4.6 mph - N/A   Partly Cloudy
10:53 AM 63.0 °F 54.0 °F 72% 29.68 in 10.0 mi NE 9.2 mph - N/A   Mostly Cloudy
11:45 AM 64.4 °F 53.6 °F 68% 29.70 in 10.0 mi NNE 10.4 mph - N/A   Mostly Cloudy
11:53 AM 64.0 °F 53.1 °F 67% 29.69 in 10.0 mi NNE 8.1 mph - N/A   Overcast
12:26 PM 64.4 °F 53.6 °F 68% 29.70 in 10.0 mi Variable 6.9 mph 18.4 mph N/A   Mostly Cloudy
12:53 PM 64.9 °F 53.1 °F 65% 29.70 in 10.0 mi NNE 6.9 mph - N/A   Overcast
1:53 PM 66.9 °F 51.1 °F 57% 29.70 in 10.0 mi Variable 6.9 mph 16.1 mph N/A   Mostly Cloudy
2:53 PM 70.0 °F 53.1 °F 55% 29.71 in 10.0 mi NNE 8.1 mph - N/A   Partly Cloudy
3:53 PM 70.0 °F 54.0 °F 57% 29.71 in 10.0 mi NE 12.7 mph 17.3 mph N/A   Scattered Clouds
4:53 PM 71.1 °F 53.1 °F 53% 29.73 in 10.0 mi ENE 10.4 mph 17.3 mph N/A   Mostly Cloudy
5:53 PM 71.1 °F 54.0 °F 55% 29.73 in 10.0 mi ENE 5.8 mph - N/A   Clear
6:53 PM 71.1 °F 55.0 °F 57% 29.74 in 10.0 mi NNE 9.2 mph - N/A   Scattered Clouds
7:53 PM 70.0 °F 57.0 °F 63% 29.76 in 10.0 mi NNE 4.6 mph - N/A   Mostly Cloudy
8:53 PM 69.1 °F 57.0 °F 65% 29.78 in 10.0 mi NNW 3.5 mph - N/A   Partly Cloudy
9:53 PM 66.9 °F 57.9 °F 73% 29.79 in 10.0 mi Calm Calm - N/A   Overcast
10:53 PM 64.9 °F 59.0 °F 81% 29.81 in 10.0 mi Calm Calm - N/A   Overcast
11:53 PM 64.0 °F 57.0 °F 78% 29.81 in 10.0 mi Calm Calm - N/A   Overcast